Terug naar catalogus

CHINASAT 2A

ActiefCommunicatieGEO
NORAD 38352·PAYLOAD·🇨🇳 China

Gelanceerd May 26, 2012 vanaf Xichang Satellite Launch Center

Loading…

TLE

VersSource: Space-Track

Epoch: Sep 14, 2026, 14:16 UTC

1 38352U 12028A   26257.59460109 -.00000300  00000-0  00000-0 0  9994
2 38352   1.6797  82.6208 0001010 140.1376  83.1491  1.00271516 52199

Volg CHINASAT 2A in realtime met AllMySat

Download on the App Store